Blue Bucket Stampede - 40 mile Toss 5 groups

Station: Mile Post 12 Paulina - T Race

Distance: 40.729 Miles    

Release: 31-Jul-2020 07:05

Weather Release:    Arrival:

Wind at Release:     Wind at Arrival:

Temp at Release: °    Temp at Arrival: °

Lofts: 159

Birds: 663

Clocked: 657

Released in Groups 7:05 - 7:25
Drops Pos Breeder Pigeon Name Color Sex Ent Arrival Speed To Win Elg PdOp1Op2
1 Nemelka Racing Pigeon Loft - UT 0015-AU20-NRPL INXS DC H 1 07:50:07.89 1588.324 00:00:00 Yes
2 Shawnie & Peach - MI 72526-IF20-E BBPW H 1 07:58:03.51 1351.026 00:07:56 Yes
3 Fl Zhang Loft - FL 33573-AU20-ARPU BB C 1 07:58:14.42 1346.412 00:08:07 Yes
4 House Of Paine - CA 0203-AU20-HOP 65x731 SBB H 1 07:58:16.60 1345.494 00:08:09 Yes
5 Sierra Ranch - CA 0280-AU20-SR Blue Bird BB H 1 07:58:18.18 1344.829 00:08:10 Yes
6 Crooked River Challenge - OR 4216-AU20-CORP 2157 x 4661 BB C 1 07:58:18.29 1344.783 00:08:10 Yes
7 Bob & Rusty - NV 6921-AU20-JEDD BB H 1 07:58:20.62 1343.804 00:08:13 Yes
8 Piper Loft - WA 2123-AU20-FTV BBT C 1 07:58:22.10 1343.183 00:08:14 Yes
9 Zheng Loft - FL 0028-IF20-ZHEN LBC H 1 07:58:23.99 1342.391 00:08:16 Yes
10 Bond Loft - CA 3502-AU20-SRP Makani BBTW H 1 07:58:28.36 1340.562 00:08:20 Yes
11 Highland Loft - NY 5661-AU20-ARPU Leo. X. 1407πŸ―πŸ‰ BC C 1 07:58:29.70 1340.003 00:08:22 Yes
12 Great Wall - MS 20029-AU20-CHAN LBCT C 1 07:58:31.17 1339.389 00:08:23 Yes
13 Paul Yahiku - OR 19121-AU20-YAHI 555 X 2765 BC H 1 07:58:32.78 1338.718 00:08:25 Yes
14 Evergreen Loft - WA 0501-AU20-OTC BC H 1 07:58:33.33 1338.489 00:08:25 Yes
15 John V. Partridge - CA 2107-AU20-PASO Keizer Royal BB H 1 07:58:34.34 1338.068 00:08:26 Yes
16 A P C Loft - TX 20024-AU20-APCL BB H 1 07:58:34.60 1337.960 00:08:27 Yes
17 Apple Cup - WA 0801-AU20-YAK BBTW C 1 07:58:37.19 1336.883 00:08:29 Yes
18 Irishsyndicatelofts - AZ 1016-AU20-IRSH Fame And Glory 1327 BC H 1 07:58:41.06 1335.277 00:08:33 Yes
19 Cherokee Loft - MI 0611-AU20-CHER 7777 Ludo X 2094 Nanez BBT H 1 07:58:42.62 1334.630 00:08:35 Yes
20 Zong Jing Tang - FL 34455-AU20-ARPU BBPW H 1 07:58:47.83 1332.476 00:08:40 Yes
21 L S U - LA 0461-AU20-LSU MLY H 1 07:58:49.22 1331.902 00:08:41 Lost
22 Mt. Hood Syndicate - WA 14773-AU20-JEDD Pink Fraulein BB H 1 07:58:51.46 1330.979 00:08:44 Yes
23 Tucson Triple Challenge - AZ 1193-AU20-JEDD BB H 1 07:58:53.72 1330.049 00:08:46 Yes
24 Gomez Loft - CA 2626-AU20-CHP BB H 1 07:58:56.38 1328.956 00:08:48 Yes
25 Julio Medina - TX 0038-AU20-JJML BC C 1 07:58:57.72 1328.406 00:08:50 Yes
26 Scrub Family Loft - MN 0053-AU20-SCRB Crazy Eye DC C 1 07:58:59.79 1327.557 00:08:52 Yes
27 Scrub Family Loft - MN 0055-AU20-SCRB Princess LBC H 2 07:59:07.88 1324.250 00:09:00 Yes
28 A-Lo-Loft - NY 0007-AU20-ALOL ☯️7032☯️ SBB H 1 07:59:10.30 1323.264 00:09:02 Yes
29 A H C Loft - FL 0316-IF20-NWFI πŸ‰πŸ‰419x8567πŸ‰πŸ‰ BB H 1 07:59:12.07 1322.544 00:09:04 Yes
30 Jimmy Zheng Loft - MS 0178-AU20-JIMY MLYT C 1 07:59:12.86 1322.223 00:09:05 Yes
31 R & D Racing 2 - ON 4404-AU20-AA BB H 1 07:59:13.40 1322.003 00:09:06 Yes
32 Paul Yahiku - OR 19124-AU20-YAHI 688 X 4615 BB C 2 07:59:13.95 1321.780 00:09:06 Yes
33 Thunder Birds/Rodriguez Breeding Loft - TX 5451-AU20-JEDD BF-CRO BB H 1 07:59:14.67 1321.488 00:09:07 Yes
34 Fl Zhang Loft - FL 33575-AU20-ARPU BC C 2 07:59:15.80 1321.029 00:09:08 Yes
35 A-Lo-Loft - NY 0009-AU20-ALOL ☯️2885☯️ BB C 2 07:59:16.02 1320.940 00:09:08 Yes
36 Greek Connection - SC 0386-AU20-GREK 656 x KEYHOLE BBTW H 1 07:59:16.07 1320.919 00:09:08 Yes
37 Clausing - FL 0195-IF20-CLAU BBPW C 1 07:59:16.85 1320.603 00:09:09 Yes
38 Chen & Liu Family - CT 0041-IF20-LIU SILW C 1 07:59:17.69 1320.263 00:09:10 Yes
39 πŸ‘€carlito El Animal $ Dammay Loft - FL 2507-AU20-JEDD Varlun BC C 1 07:59:19.84 1319.392 00:09:12 Yes
40 B.C. Weaver - FL 32975-AU20-ARPU Da HOOSIER BB C 1 07:59:20.48 1319.133 00:09:13 Yes
41 98 M J Loft - PA 0012-AU20-JIAN BB H 1 07:59:20.94 1318.947 00:09:13 Lost
42 John V. Partridge - CA 2136-AU20-PASO Better B Good BB H 2 07:59:26.04 1316.887 00:09:18 Yes
43 Greek Connection - SC 0312-AU20-GREK GUTZ x 452 BB C 2 07:59:26.14 1316.847 00:09:18 Yes
44 Bob & Rusty - NV 6927-AU20-JEDD BBT H 2 07:59:27.38 1316.347 00:09:19 Yes
45 Chai Suen Siu - NY 0300-IF20-SLI BBPW H 1 07:59:27.61 1316.254 00:09:20 Yes
46 PNWC - ID 0070-AU20-PNWC Pair# 23 BC H 1 07:59:28.96 1315.711 00:09:21 Yes
47 Tyler Loft - TX 6188-AU20-ARPU BCTW H 1 07:59:35.75 1312.984 00:09:28 Yes
48 John Ceciliani - OR 20008-AU20-BORD 185 x 10103 Borderjumper BBT C 1 07:59:38.38 1311.930 00:09:30 Yes
49 Alaniz Loft πŸ‡²πŸ‡½ - IL 0091-AU20-ALNZ JADE BBW H 1 07:59:38.83 1311.750 00:09:31 Yes
50 Emerson/Donnelly - SC 0304-AU20-MERL BC H 1 07:59:40.71 1310.999 00:09:33 Yes
51 Silicon Valley Syndicate - CA 20005-AU20-SVS LBC H 1 07:59:46.66 1308.625 00:09:39 Yes
52 Flying Glory Loft - WA 0150-AU20-WACO BB C 1 07:59:47.80 1308.171 00:09:40 Yes
53 W C R - UT 2409-AU20-WFA BCSP H 1 07:59:48.59 1307.857 00:09:41 Yes
54 Bunk / Mats - CA 28110-AU20-JEDD DC H 1 07:59:49.80 1307.376 00:09:42 Yes
55 Rachel Olivieri - CA 20504-AU20-LAKE K2 BB C 1 07:59:56.13 1304.865 00:09:48 Yes
56 day-Stars loft - WA 2353-AU20-PNW DC H 1 07:59:57.15 1304.462 00:09:49 Yes
57 Mt. Hood Syndicate - WA 2160-AU20-PNW MFL BB C 2 07:59:58.20 1304.046 00:09:50 Yes
58 Calsyn & Scroggins - IL 0740-AU20-RRV BBW H 1 07:59:58.71 1303.845 00:09:51 Yes
59 Lising Syndicate - CA 38206-AU20-ARPU Almond Loco x White Face BBW C 1 07:59:59.18 1303.659 00:09:51 Yes
60 Bunk / Mats - CA 0502-AU20-OCF BB H 2 07:59:59.96 1303.351 00:09:52 Yes
61 Dave Conover - PA 2320-IF20-PHX 1047 x 17813 BB C 1 08:00:00.88 1302.988 00:09:53 Yes
62 Van Den Bossche Brothers - ME 0001-IF20-VDB Cracker LBC C 1 08:00:01.52 1302.735 00:09:54 Yes
63 Ken Family Loft - FL 0515-AU20-XKL BBW H 1 08:00:04.55 1301.541 00:09:57 Yes
64 Capistrano Loft - FL 13419-AU20-ARPU Zenki BBPW H 1 08:00:04.69 1301.486 00:09:57 Yes
65 Bieche-Stevenson - CA 0204-AU20-BECH SIL H 1 08:00:19.55 1295.659 00:10:12 Yes
66 Holts Loft - NC 0441-AU20-MAC LBC H 1 08:00:28.11 1292.327 00:10:20 Yes
67 G & L Loft - OR 1524-AU20-WPC DC C 1 08:00:39.70 1287.842 00:10:32 Yes
68 F C Syndicate - CA 0401-AU20-MAN LBC H 1 08:00:42.43 1286.790 00:10:35 Yes
69 Kolvenbag & Son - PA 1413-IF20-KOLV BB H 1 08:00:44.44 1286.017 00:10:37 Yes
70 Al Shulman - CA 2139-AU20-WSJ DC H 1 08:00:47.34 1284.903 00:10:39 Yes
71 A P C Loft - TX 20041-AU20-APCL BB H 2 08:00:54.48 1282.168 00:10:47 Yes
72 Emerson/Donnelly - SC 0306-AU20-MERL BB H 2 08:00:56.14 1281.534 00:10:48 Yes
73 Arandas Loft - TX 7692-AU20-JEDD kanibal 75 x super cris DC H 1 08:00:58.53 1280.622 00:10:51 Yes
74 The Delta Renegades - TN 3503-AU20-MCF BB H 1 08:01:00.54 1279.856 00:10:53 Yes
75 Zheng Loft - FL 0029-IF20-ZHEN LBC C 2 08:01:08.77 1276.729 00:11:01 Yes
76 Ken Family Loft - FL 0502-AU20-XKL BB C 2 08:01:12.05 1275.487 00:11:04 Yes
77 Steven Loft - TX 0150-AU20-CCL Hot Chocolate CHOC H 1 08:01:13.26 1275.030 00:11:05 Yes
78 Emerson/Donnelly - SC 0312-AU20-MERL SLT H 3 08:01:14.66 1274.501 00:11:07 Yes
79 Na Hoa - HI 0115-AU20-KAU "HILO GIRL" BBTW H 1 08:01:17.38 1273.474 00:11:09 Yes
80 Jiang Tou Loft - TN 8934-AU20-LIN πŸŸ₯πŸŸ₯独醉πŸŸ₯πŸŸ₯ BBPW H 1 08:01:18.31 1273.124 00:11:10 Yes
81 Racing Pigeon Mall - WA 1014-AU20-RPM BB C 1 08:01:19.08 1272.833 00:11:11 Yes
82 Flying Glory Loft - WA 28104-AU20-ARPU BB H 2 08:01:19.88 1272.532 00:11:12 Yes
83 Greek Connection - SC 0304-AU20-GREK 570 x 3399 BBW C 3 08:01:20.57 1272.272 00:11:13 Yes
84 Drama Queen Loft - TX 1085-AU20-GCI 2812 x 24347 BB H 1 08:01:21.99 1271.738 00:11:14 Yes
85 Fl Zhang Loft - FL 33571-AU20-ARPU BCPW H 3 08:01:22.45 1271.565 00:11:15 Yes
86 Yendez Loft - TX 0564-AU20-YEND YENDEZ 564 BBP H 1 08:01:22.49 1271.550 00:11:15 Lost
87 Nemelka Racing Pigeon Loft - UT 0009-AU20-NRPL See You Never DC H 2 08:01:23.22 1271.276 00:11:15 Yes
88 W C R - UT 2410-AU20-WFA BB H 2 08:01:23.24 1271.268 00:11:15 Yes
89 Van Den Bossche Brothers - ME 0011-IF20-VDB Longmire BB H 2 08:01:25.16 1270.547 00:11:17 Yes
90 A P C Loft - TX 20032-AU20-APCL SBB H 3 08:01:25.81 1270.303 00:11:18 Yes
91 Credeur Family Loft - LA 0901-AU20-CFL LBC H 1 08:01:25.94 1270.255 00:11:18 Yes
92 Mesopotamia Loft - MN 1706-AU20-VITA BB H 1 08:01:30.35 1268.602 00:11:22 Yes
93 Bryan Maier - PA 0451-IF20-MAIR BBT C 1 08:01:31.65 1268.116 00:11:24 Yes
94 Longjohn Loft - OK 1182-AU20-FOYS BC H 1 08:01:32.98 1267.619 00:11:25 Yes
95 Dave Harrett - WA 7203-AU20-JEDD BB C 1 08:01:34.14 1267.186 00:11:26 Yes
96 Baldwin & Tillson - NC 0255-AU20-TENT JACK-8164(287) BB C 1 08:01:36.06 1266.469 00:11:28 Yes
97 M & Y Connection - MI 0102-AU20-MY 166 x 8000 BB C 1 08:01:39.65 1265.132 00:11:32 Yes
98 A P C Loft - TX 20052-AU20-APCL LBC H 4 08:01:44.12 1263.471 00:11:36 Yes
99 Callahan Loft - MO 0949-AU20-AA BB H 1 08:01:48.40 1261.884 00:11:41 Yes
100 Lising Syndicate - CA 3557-AU20-ARPU DC H 2 08:01:51.24 1260.834 00:11:43 Yes

There are 631 bird records

Note: These Race Results are unofficial and subject to change until verified by the Race Committee and declared final.



windy
Click for Forecast for 97754 from weatherUSA